Volver al catálogo

HULIANWANG DIGUI-183

ActivoCienciaLEO
NORAD 100208·PAYLOAD·🇨🇳 China

Lanzado Aug 4, 2026 desde Wenchang Space Launch Site

Loading…

Próximos Pases (próximas 24 horas)

TLE

ActualizadoSource: Space-Track

Época: Sep 14, 2026, 23:08 UTC

1 A0208U 26176F   26257.96445241 -.00000090  00000-0  74348-4 0  9999
2 A0208  49.9928 243.7539 0000202   0.7933 359.2940 13.29327691  5563

Sigue HULIANWANG DIGUI-183 en tiempo real con AllMySat

Download on the App Store